Starlink 31404

operational
NORAD ID: 59521 Int'l Des: 2024-073 Owner: SPXS Country: US Constellation: starlink
LEOCIRCULAR

About Starlink 31404

Description loading...

Live Position

Loading 3D Globe...

Upcoming Passes

Altitude History

Altitude vs Time

uPlot chart will show altitude changes over time

Two-Line Element Set

1 59521U 24073L 25303.51769611 -.00002756 00000-0 -90735-4 0 9997
2 59521 43.0024 333.4908 0000467 44.7703 315.3186 15.27555432 86267
Epoch: Oct 30, 2025 • Age: 30 hours

Current Status

Altitude 482.5 km
Velocity 7.63 km/s
Sub-Earth Point 18.97°N, 160.96°E
Launch Date Apr 17, 2024
Age 1.5 years
Type internet

Technical Details

Classification Payload
Mass 730.00 kg
Dry Mass 700.00 kg
Total Mass 730.00 kg
Length 0.30 m
Diameter 4.10 m
Span 29.00 m
Shape Box + pan
Manufacturer SPXS
Bus Type Starlink V2M
Phase Status In Orbit
Owner/State SPXS/US

Large Constellations

Loading constellations...